User: anonymous
Location: Unspecified
(0.0000°N, 0.0000°E)
Time: 14:21:08
(UTC+00:00)
Language:

AMOS 1 - Orbit

View from above orbital plane
View from above orbital plane
View from above satellite
View from above satellite

Ground track
Ground track

The orbit data is extracted from the following two-line orbital elements,

1 23865U 96030B   14208.59165280 -.00000056  00000-0  00000+0 0  1301
2 23865 005.1377 061.9593 0013820 077.9298 099.0188 00.97116310 66395
Epoch (UTC): 27 July 2014 14:11:58
Eccentricity: 0.0013820
inclination: 5.1377°
perigee height: 36635 km
apogee height: 36754 km
right ascension of ascending node: 61.9593°
argument of perigee: 77.9298°
revolutions per day: 0.97116310
mean anomaly at epoch: 99.0188°
orbit number at epoch: 6639

The dashed part of the orbit path shows where the satellite is in the earth's shadow,  

DLR